Weather History for Oakes, ND

Change the Weather History Date:

Tuesday, November 20, 2012

  Actual Average (KABR) Record (KABR)
Temperature  
Mean Temperature 38 °F 27 °F  
Max Temperature 57 °F 37 °F 69 °F (1962)
Min Temperature 19 °F 17 °F -12 °F (1978)
Degree Days  
Heating Degree Days 27 38  
Month to date heating degree days 659  
Since 1 July heating degree days 1550  
Cooling Degree Days 0 0  
Month to date cooling degree days 0  
Year to date cooling degree days 525  
Moisture  
Dew Point 29 °F    
Average Humidity 80    
Maximum Humidity 100    
Minimum Humidity 33    
Precipitation  
Precipitation 0.00 in 0.03 in 0.83 in (1953)
Month to date precipitation 0.53  
Year to date precipitation 21.00  
Snow  
Snow 0.00 in - - ()
Month to date snowfall  
Since 1 July snowfall  
Snow Depth -    
Sea Level Pressure  
Sea Level Pressure 30.00 in    
Wind  
Wind Speed 6 mph (South)    
Max Wind Speed 24 mph    
Max Gust Speed 28 mph    
Visibility 8 miles    
Events Fog    
T = Trace of Precipitation, MM = Missing Value Source: NWS Daily Summary

Daily Weather History Graph

Daily Weather History Graph

Search for Another Location

Airport:

Trip Planner

Search our weather history database for the weather conditions in past years. The results will help you decide how hot, cold, wet, or windy it might be!

Date:

Astronomy

Nov. 20, 2012 Rise Set
Actual Time 7:40 AM CST 4:54 PM CST
Civil Twilight 7:07 AM CST 5:27 PM CST
Nautical Twilight 6:31 AM CST 6:04 PM CST
Astronomical Twilight 5:55 AM CST 6:40 PM CST
Moon 1:04 PM CST (11/20) No Moon Set
Length of Visible Light 10h 20m
Length of Day
9h 13m
First Quarter, 51% of the Moon is Illuminated
Nov 20
First Quarter
Nov 28
Full
Dec 6
Last Quarter
Dec 13
New
Dec 19
First Quarter

Hourly Weather History & Observations

Time (CST) Temp. Windchill Dew Point Humidity Pressure Visibility Wind Dir Wind Speed Gust Speed Precip Events Conditions
12:15 AM 23.0 °F - 23.0 °F 100% 30.17 in 1.5 mi Calm Calm - N/A   Mist
12:35 AM 23.0 °F 18.4 °F 23.0 °F 100% 30.16 in 3.0 mi WSW 3.5 mph - N/A   Mist
12:55 AM 21.2 °F 16.4 °F 21.2 °F 100% 30.14 in 4.0 mi SSE 3.5 mph - N/A   Mist
1:15 AM 23.0 °F 18.4 °F 23.0 °F 100% 30.14 in 8.0 mi SSW 3.5 mph - N/A   Unknown
1:35 AM 23.0 °F - 23.0 °F 100% 30.15 in 0.2 mi Calm Calm - N/A Fog Light Freezing Fog
1:55 AM 23.0 °F - 23.0 °F 100% 30.15 in 0.2 mi Calm Calm - N/A Fog Light Freezing Fog
2:15 AM 23.0 °F - 23.0 °F 100% 30.14 in 0.2 mi Calm Calm - N/A Fog Light Freezing Fog
2:35 AM 19.4 °F 12.8 °F 19.4 °F 100% 30.14 in 1.2 mi South 4.6 mph - N/A   Clear
6:15 AM 19.4 °F 12.8 °F 19.4 °F 100% 30.12 in 0.2 mi South 4.6 mph - N/A Fog Light Freezing Fog
6:35 AM 19.4 °F 11.5 °F 19.4 °F 100% 30.11 in 0.5 mi SE 5.8 mph - N/A Fog Light Freezing Fog
6:55 AM 19.4 °F 11.5 °F 19.4 °F 100% 30.10 in 0.5 mi SSE 5.8 mph - N/A Fog Light Freezing Fog
7:15 AM 19.4 °F 11.5 °F 19.4 °F 100% 30.09 in 0.8 mi SSE 5.8 mph - N/A   Overcast
7:35 AM 19.4 °F 11.5 °F 19.4 °F 100% 30.09 in 0.2 mi SE 5.8 mph - N/A Fog Light Freezing Fog
7:55 AM 19.4 °F - 19.4 °F 100% 30.10 in 7.0 mi Calm Calm - N/A   Overcast
8:15 AM 23.0 °F - 23.0 °F 100% 30.10 in 3.0 mi Calm Calm - N/A   Partly Cloudy
8:35 AM 23.0 °F 18.4 °F 23.0 °F 100% 30.09 in 1.0 mi ESE 3.5 mph - N/A   Clear
8:55 AM 24.8 °F - 24.8 °F 100% 30.10 in 7.0 mi Calm Calm - N/A   Clear
9:15 AM 26.6 °F 21.2 °F 26.6 °F 100% 30.10 in 7.0 mi SSE 4.6 mph - N/A   Clear
9:35 AM 26.6 °F 22.6 °F 26.6 °F 100% 30.09 in 2.5 mi South 3.5 mph - N/A   Clear
9:55 AM 28.4 °F 21.2 °F 28.4 °F 100% 30.08 in 3.0 mi SSE 6.9 mph - N/A   Clear
10:15 AM 30.2 °F 22.6 °F 30.2 °F 100% 30.08 in 7.0 mi South 8.1 mph - N/A   Clear
10:35 AM 32.0 °F 24.2 °F 32.0 °F 100% 30.07 in 10.0 mi SSE 9.2 mph - N/A   Clear
10:55 AM 33.8 °F 25.8 °F 33.8 °F 100% 30.06 in 10.0 mi South 10.4 mph - N/A   Clear
11:15 AM 37.4 °F 28.9 °F 37.4 °F 100% 30.05 in 10.0 mi South 13.8 mph - N/A   Clear
11:35 AM 41.0 °F 33.9 °F 33.8 °F 76% 30.04 in 10.0 mi South 12.7 mph - N/A   Clear
11:55 AM 44.6 °F 38.4 °F 30.2 °F 57% 30.02 in 10.0 mi South 12.7 mph - N/A   Clear
12:15 PM 46.4 °F 41.1 °F 30.2 °F 53% 30.01 in 10.0 mi South 11.5 mph - N/A   Clear
12:35 PM 48.2 °F - 28.4 °F 46% 30.00 in 10.0 mi SSE 12.7 mph - N/A   Clear
1:15 PM 51.8 °F - 26.6 °F 38% 29.98 in 10.0 mi South 13.8 mph - N/A   Clear
1:35 PM 53.6 °F - 26.6 °F 35% 29.97 in 10.0 mi South 12.7 mph - N/A   Clear
1:55 PM 55.4 °F - 28.4 °F 36% 29.95 in 10.0 mi South 13.8 mph 17.3 mph N/A   Clear
2:15 PM 55.4 °F - 28.4 °F 36% 29.95 in 10.0 mi South 12.7 mph 19.6 mph N/A   Clear
2:35 PM 57.2 °F - 28.4 °F 33% 29.93 in 10.0 mi South 24.2 mph 27.6 mph N/A   Clear
2:55 PM 57.2 °F - 30.2 °F 36% 29.92 in 10.0 mi South 16.1 mph - N/A   Clear
3:15 PM 55.4 °F - 32.0 °F 41% 29.91 in 10.0 mi South 13.8 mph - N/A   Clear
3:35 PM 55.4 °F - 32.0 °F 41% 29.91 in 10.0 mi South 16.1 mph 21.9 mph N/A   Clear
3:55 PM 53.6 °F - 33.8 °F 47% 29.92 in 10.0 mi SSW 12.7 mph - N/A   Clear
4:15 PM 50.0 °F - 35.6 °F 58% 29.92 in 10.0 mi SSW 12.7 mph - N/A   Clear
4:35 PM 48.2 °F - 35.6 °F 62% 29.93 in 10.0 mi SSW 8.1 mph - N/A   Clear
4:55 PM 46.4 °F 41.9 °F 33.8 °F 62% 29.92 in 10.0 mi South 9.2 mph - N/A   Clear
5:15 PM 44.6 °F 38.8 °F 33.8 °F 66% 29.92 in 10.0 mi South 11.5 mph - N/A   Clear
5:35 PM 44.6 °F 40.2 °F 35.6 °F 71% 29.91 in 10.0 mi South 8.1 mph - N/A   Clear
5:55 PM 41.0 °F 39.0 °F 33.8 °F 76% 29.91 in 10.0 mi SSW 3.5 mph - N/A   Clear
6:15 PM 41.0 °F 35.2 °F 33.8 °F 76% 29.90 in 10.0 mi South 9.2 mph - N/A   Clear
6:35 PM 39.2 °F 33.0 °F 32.0 °F 75% 29.91 in 10.0 mi SSW 9.2 mph - N/A   Clear
6:55 PM 39.2 °F 32.5 °F 33.8 °F 81% 29.90 in 10.0 mi South 10.4 mph - N/A   Clear
7:15 PM 41.0 °F 34.3 °F 35.6 °F 81% 29.91 in 10.0 mi SSW 11.5 mph - N/A   Clear
7:35 PM 39.2 °F 34.2 °F 33.8 °F 81% 29.92 in 10.0 mi SSW 6.9 mph - N/A   Clear
7:55 PM 41.0 °F 35.8 °F 33.8 °F 76% 29.90 in 10.0 mi South 8.1 mph - N/A   Clear
8:15 PM 39.2 °F 33.6 °F 33.8 °F 81% 29.90 in 10.0 mi SSW 8.1 mph - N/A   Clear
8:35 PM 37.4 °F 30.3 °F 33.8 °F 87% 29.89 in 10.0 mi SSW 10.4 mph - N/A   Clear
8:55 PM 37.4 °F 30.8 °F 33.8 °F 87% 29.89 in 10.0 mi SSW 9.2 mph - N/A   Clear
9:15 PM 37.4 °F 32.8 °F 32.0 °F 81% 29.89 in 10.0 mi SSE 5.8 mph - N/A   Clear
9:35 PM 37.4 °F 32.8 °F 33.8 °F 87% 29.90 in 10.0 mi SSW 5.8 mph - N/A   Clear
9:55 PM 39.2 °F 33.0 °F 33.8 °F 81% 29.90 in 10.0 mi SSW 9.2 mph - N/A   Clear
10:15 PM 37.4 °F 33.8 °F 33.8 °F 87% 29.90 in 10.0 mi SW 4.6 mph - N/A   Clear
10:35 PM 33.8 °F 28.6 °F 32.0 °F 93% 29.89 in 10.0 mi SSW 5.8 mph - N/A   Clear
10:55 PM 35.6 °F 29.2 °F 32.0 °F 87% 29.88 in 10.0 mi South 8.1 mph - N/A   Clear
11:15 PM 35.6 °F 32.8 °F 33.8 °F 93% 29.89 in 10.0 mi South 3.5 mph - N/A   Clear
11:35 PM 37.4 °F 33.8 °F 33.8 °F 87% 29.89 in 10.0 mi SSW 4.6 mph - N/A   Clear
11:55 PM 32.0 °F 24.2 °F 32.0 °F 100% 29.89 in 10.0 mi South 9.2 mph - N/A   Clear